User: anonymous   Login
Location: *
(35.2348°S, 91.3916°E)
Time: 16:37:18
(UTC+00:00)
Language:

ADEOS - Orbit

View from above orbital plane
View from above orbital plane
View from above satellite
View from above satellite

Ground track
Ground track

The orbit data is extracted from the following two-line orbital elements,

1 24277U 96046A   19349.46178874 -.00000030  00000-0  63063-5 0  9995
2 24277  98.8492 316.6998 0001381 141.8534 218.2746 14.29442404216402
Epoch (UTC): 15 December 2019 11:04:58
Eccentricity: 0.0001381
inclination: 98.8492°
perigee height: 792 km
apogee height: 794 km
right ascension of ascending node: 316.6998°
argument of perigee: 141.8534°
revolutions per day: 14.29442404
mean anomaly at epoch: 218.2746°
orbit number at epoch: 21640

The dashed part of the orbit path shows where the satellite is in the earth's shadow,  

DLR